This is the latest recevied weather packets stored in our database for station/object KC0UFP. If no packets are shown the sender has not sent any weather packets the latest 10 day(s).
| Time | Temp. | Humidity | Pressure | Rain* | Wind** | Luminosity | Snow |
|---|---|---|---|---|---|---|---|
| 1777587785 | 17.78° C | 43% | 1015.1 hPa | 0 mm | - | 221 W/m² | - |
| 1777587483 | 17.78° C | 44% | 1015.4 hPa | 0 mm | - | 232 W/m² | - |
| 1777587180 | 17.78° C | 42% | 1015.3 hPa | 0 mm | - | 207 W/m² | - |
| 1777586875 | 17.78° C | 41% | 1015.2 hPa | 0 mm | - | 294 W/m² | - |
| 1777586571 | 17.78° C | 40% | 1015 hPa | 0 mm | - | 296 W/m² | - |
| 1777586262 | 17.78° C | 43% | 1015.2 hPa | 0 mm | - | 302 W/m² | - |
| 1777585959 | 17.78° C | 39% | 1015.3 hPa | 0 mm | - | 313 W/m² | - |
| 1777585654 | 17.78° C | 40% | 1015.2 hPa | 0 mm | - | 391 W/m² | - |
| 1777585349 | 17.78° C | 41% | 1015.1 hPa | 0 mm | - | 273 W/m² | - |
| 1777585044 | 17.78° C | 43% | 1015.3 hPa | 0 mm | - | 399 W/m² | - |
| 1777584741 | 17.78° C | 40% | 1015.2 hPa | 0 mm | - | 391 W/m² | - |
| 1777584439 | 17.78° C | 40% | 1015.5 hPa | 0 mm | - | 357 W/m² | - |
| 1777584134 | 17.78° C | 39% | 1015.6 hPa | 0 mm | - | 338 W/m² | - |
| 1777583834 | 17.78° C | 43% | 1015.6 hPa | 0 mm | - | 534 W/m² | - |
| 1777583530 | 17.78° C | 39% | 1015.7 hPa | 0 mm | - | 760 W/m² | - |
| 1777583224 | 17.78° C | 40% | 1015.6 hPa | 0 mm | - | 822 W/m² | - |
| 1777582918 | 17.78° C | 44% | 1015.6 hPa | 0 mm | - | 540 W/m² | - |
| 1777582617 | 17.78° C | 41% | 1015.7 hPa | 0 mm | - | 418 W/m² | - |
| 1777582311 | 17.78° C | 40% | 1016 hPa | 0 mm | - | 474 W/m² | - |
| 1777582010 | 17.78° C | 42% | 1016 hPa | 0 mm | - | 749 W/m² | - |
| 1777581704 | 17.78° C | 38% | 1016.3 hPa | 0 mm | - | 923 W/m² | - |
| 1777581403 | 17.22° C | 39% | 1016.2 hPa | 0 mm | - | 420 W/m² | - |
| 1777581098 | 17.78° C | 39% | 1016.1 hPa | 0 mm | - | 725 W/m² | - |
| 1777580798 | 17.78° C | 40% | 1016.3 hPa | 0 mm | - | 684 W/m² | - |
| 1777580494 | 17.22° C | 42% | 1016.2 hPa | 0 mm | - | 721 W/m² | - |
* Rain latest hour (hover to see other rain measurements)
** Current wind speed in m/s (hover to see current wind gust speed)